Weather in Thái Bình

Vietnam     20°27′00″N   106°20′28″E
temp.,
°C
wind,
m/s
gust,
m/s
humid.,
%
clouds,
%
prec.,
mm/h
press.,
hPa
HPBL,
m
28 january, thu
thu2801:00+19e359221 0.0 1018294
04:00+19e4787100 0.1 1018459
07:00+19ene3782100 0.4 1021534
10:00+19nne3585100 0.5 1024460
13:00+18ene1281100 1.6 1022404
16:00+18w2370100 0.9 1021295
19:00+17wnw246394 0.9 1022132
22:00+16wnw227115 0.0 102342
29 january, fri
fri2901:00+16nnw22698 0.0 102239
04:00+15nw116924 0.0 102128
07:00+16nne117049 0.0 102227
10:00+21ese455228 0.0 10241021
13:00+22ese565554 0.0 10211090
16:00+21ese565733 0.0 1018848
19:00+18ese357016 0.0 1019461
22:00+17ese25750 0.0 1020310
30 january, sat
sat3001:00+18e257822 0.0 1019356
04:00+17ene258976 0.1 1018264
07:00+18ene378687 0.2 1020451
10:00+19e5881100 0.1 1022637
13:00+19e5882100 0.4 1020571
16:00+20e577995 0.0 1018570
19:00+18e478880 0.0 1019346
22:00+17e378924 0.0 1021266
31 january, sun
sun3101:00+17e389218 0.0 1020246
04:00+17e38964 0.1 1019276
07:00+18e499039 0.2 1020386
10:00+21e587697 0.0 1021645
13:00+22ese567199 0.1 1019704
16:00+22ese5671100 0.1 1017654
19:00+19ese4784100 0.1 1018340
22:00+19ese3688100 0.0 1020268
1 february, mon
mon101:00+18ese248994 0.0 1019137
04:00+17e259173 0.0 1018156
07:00+18e368384 0.0 1019271
10:00+20e358095 0.0 1021398
13:00+23ese336797 0.1 1018646
16:00+23ese556869 0.0 1016555
19:00+19ese468542 0.0 1018253
22:00+19e23880 0.0 1019133